Starlink 30816

operational
NORAD ID: 58162 Int'l Des: 2023-166 Owner: SPXS Country: US Constellation: starlink
LEOCIRCULAR

Über Starlink 30816

Beschreibung wird geladen...

Live-Position

3D-Globus wird geladen...

Nächste Überflüge

Höhenverlauf

Altitude vs Time

uPlot chart will show altitude changes over time

Zweizeiliger Elementsatz

1 58162U 23166N 25350.95843752 -.00000693 00000-0 -11267-4 0 9999
2 58162 53.1584 243.8325 0001146 101.7183 258.3946 15.30196387120519
Epoch: 16. Dez. 2025 • Age: 8 hours

Aktueller Status

Höhe 481.0 km
Geschwindigkeit 7.63 km/s
Subsatellitenpunkt 53.26°N, 134.24°E
Startdatum 29. Okt. 2023
Alter 2.1 years
Typ internet

Technische Details

Klassifizierung Payload
Masse 730.00 kg
Trockenmasse 700.00 kg
Gesamtmasse 730.00 kg
Länge 0.30 m
Durchmesser 4.10 m
Spannweite 29.00 m
Form Box + pan
Hersteller SPXS
Bus-Typ Starlink V2M
Phasenstatus In Orbit
Besitzer/Staat SPXS/US

Große Konstellationen

Loading constellations...